New River MCAS, NC

8:29 AM EST on December 13, 2019 (GMT -0500)
New River Marine Corps Air Station

Weather History for KNCA - July, 2019

Change the Weather History Date:

Sunday, July 21, 2019

  Actual Average Record
Temperature  
Mean Temperature 86 °F -  
Max Temperature 97 °F 86 °F 96 °F (2008)
Min Temperature 77 °F 70 °F 63 °F (2001)
Cooling Degree Days 22    
Growing Degree Days 36 (Base 50)    
Moisture  
Dew Point 74 °F    
Average Humidity 69    
Maximum Humidity 90    
Minimum Humidity 43    
Precipitation  
Precipitation 0.00 in - - ()
Sea Level Pressure  
Sea Level Pressure 29.99 in    
Wind  
Wind Speed 9 mph (SW)    
Max Wind Speed 16 mph    
Max Gust Speed 24 mph    
Visibility 10 miles    
Events      
Averages and records for this station are not official NWS values.
T = Trace of Precipitation, MM = Missing Value Source: NWS Daily Summary

Daily Weather History Graph

Daily Weather History Graph

Search for Another Location

Airport or City:

Astronomy

Jul. 21, 2019 Rise Set
Actual Time 6:11 AM EDT 8:20 PM EDT
Civil Twilight 5:43 AM EDT 8:48 PM EDT
Nautical Twilight 5:08 AM EDT 9:23 PM EDT
Astronomical Twilight 4:30 AM EDT 10:00 PM EDT
Moon 11:23 PM EDT (7/21) 10:21 AM EDT (7/21)
Length of Visible Light 15h 05m
Length of Day
14h 08m
Waning Gibbous, 80% of the Moon is Illuminated
Jul 21
Waning Gibbous
Jul 24
Last Quarter
Jul 31
New
Aug 7
First Quarter
Aug 15
Full

Hourly Weather History & Observations

Time (EDT) Temp. Heat Index Dew Point Humidity Pressure Visibility Wind Dir Wind Speed Gust Speed Precip Events Conditions
12:56 AM 81.0 °F 85.8 °F 73.0 °F 77% 30.01 in 10.0 mi WSW 8.1 mph - N/A   Clear
1:56 AM 80.1 °F 84.2 °F 73.0 °F 79% 30.01 in 10.0 mi SW 8.1 mph - N/A   Clear
2:56 AM 79.0 °F - 73.9 °F 84% 30.01 in 10.0 mi WSW 10.4 mph - N/A   Clear
3:56 AM 78.1 °F - 73.9 °F 87% 30.00 in 10.0 mi WSW 8.1 mph - N/A   Clear
4:56 AM 78.1 °F - 73.9 °F 87% 30.00 in 10.0 mi WSW 5.8 mph - N/A   Clear
5:56 AM 77.0 °F - 73.9 °F 90% 30.00 in 10.0 mi WSW 6.9 mph - N/A   Clear
6:56 AM 78.1 °F - 73.9 °F 87% 30.01 in 10.0 mi SW 9.2 mph - N/A   Clear
7:56 AM 81.0 °F 86.7 °F 75.0 °F 82% 30.01 in 10.0 mi WSW 11.5 mph - N/A   Clear
8:56 AM 84.9 °F 93.3 °F 75.0 °F 72% 30.03 in 10.0 mi WSW 10.4 mph - N/A   Clear
9:56 AM 88.0 °F 96.5 °F 73.9 °F 63% 30.02 in 10.0 mi WSW 11.5 mph - N/A   Clear
10:56 AM 90.0 °F 97.9 °F 73.0 °F 57% 30.02 in 10.0 mi West 16.1 mph 24.2 mph N/A   Clear
11:56 AM 91.0 °F 99.3 °F 73.0 °F 55% 30.02 in 10.0 mi West 11.5 mph - N/A   Partly Cloudy
12:56 PM 93.0 °F 100.1 °F 71.1 °F 49% 30.01 in 10.0 mi WSW 11.5 mph 20.7 mph N/A   Partly Cloudy
1:56 PM 93.9 °F 100.8 °F 71.1 °F 47% 29.99 in 10.0 mi West 8.1 mph 21.9 mph N/A   Clear
2:56 PM 96.1 °F 102.9 °F 70.0 °F 43% 29.97 in 10.0 mi WSW 11.5 mph - N/A   Unknown
3:56 PM 95.0 °F 101.3 °F 70.0 °F 44% 29.96 in 10.0 mi West 6.9 mph 17.3 mph N/A   Unknown
4:56 PM 95.0 °F 102.5 °F 71.1 °F 46% 29.95 in 10.0 mi SW 9.2 mph - N/A   Unknown
5:56 PM 91.0 °F 104.2 °F 77.0 °F 63% 29.95 in 10.0 mi South 11.5 mph - N/A   Unknown
6:56 PM 90.0 °F 101.3 °F 75.9 °F 63% 29.96 in 10.0 mi South 11.5 mph - N/A   Unknown
7:56 PM 87.1 °F 97.3 °F 75.9 °F 69% 29.97 in 10.0 mi SSW 9.2 mph - N/A   Unknown
8:56 PM 84.0 °F 92.6 °F 75.9 °F 76% 29.98 in 10.0 mi SSW 9.2 mph - N/A   Unknown
9:56 PM 82.9 °F 90.2 °F 75.0 °F 77% 29.99 in 10.0 mi SW 6.9 mph - N/A   Unknown
10:56 PM 82.9 °F 89.4 °F 73.9 °F 74% 29.99 in 10.0 mi SSW 10.4 mph - N/A   Unknown
11:56 PM 82.0 °F 87.9 °F 73.9 °F 76% 30.00 in 10.0 mi SW 8.1 mph - N/A   Unknown